contact:dominique.lefevre@mio.osupytheas.fr, maurice.libes@osupytheas.fr, didier.mallarino@osupytheas.fr
Project:EMSO http://www.emso-fr.org/EMSO-France
Depth: 2436.0 m
Title:EMSO Ligure Ouest : Data MII capteur AQUADOPP
Date,Latitude,Longitude,X_East,Y_North,Z_Up,Amplitude_X,Amplitude_Y,Amplitude_Z,Batterie,SoundSpeed,Heading,Pitch,Roll,Pressure,TIS,Speed,Direction
, degrees North, degrees East, m.s-1, m.s-1,m.s-1, 1, 1, 1, Volt, m.s-1, degree, degree, degree, dbar, degree_C, m.s-1, degree
2020-04-26T00:04:03,42.805,6.029,0.028,-0.003,-0.019,105.0,111.0,103.0,13.3,1505.3,324.1,-0.7,1.8,2470.398,13.31,0.028,96.1
2020-04-26T00:07:03,42.805,6.029,0.027,0.013,0.003,103.0,109.0,101.0,13.4,1505.3,326.2,-0.7,1.8,2470.354,13.32,0.029,64.3
2020-04-26T00:10:03,42.805,6.029,0.02,-0.012,-0.016,105.0,111.0,103.0,13.4,1505.3,324.1,-0.7,1.8,2470.386,13.32,0.023,121.0
2020-04-26T00:13:03,42.805,6.029,0.018,-0.002,-0.027,104.0,111.0,102.0,13.4,1505.3,322.8,-0.7,1.9,2470.339,13.33,0.018,96.3
2020-04-26T00:16:03,42.805,6.029,0.016,0.013,0.002,105.0,110.0,101.0,13.4,1505.3,325.8,-0.7,1.8,2470.333,13.33,0.02,50.9
2020-04-26T00:19:03,42.805,6.029,0.009,-0.005,0.006,105.0,110.0,103.0,13.4,1505.3,328.1,-0.7,1.9,2470.361,13.33,0.01,119.1
2020-04-26T00:22:03,42.805,6.029,0.009,-0.007,-0.006,106.0,108.0,102.0,13.4,1505.3,325.1,-0.7,1.8,2470.33,13.33,0.011,127.9
2020-04-26T00:25:03,42.805,6.029,0.023,0.001,0.018,105.0,110.0,103.0,13.4,1505.3,324.2,-0.7,1.8,2470.355,13.33,0.023,87.5
2020-04-26T00:28:03,42.805,6.029,0.048,-0.012,0.013,104.0,112.0,102.0,13.4,1505.3,325.6,-0.7,1.9,2470.341,13.33,0.049,104.0
2020-04-26T00:31:03,42.805,6.029,0.039,-0.004,0.005,106.0,112.0,103.0,13.4,1505.3,324.1,-0.7,1.9,2470.318,13.33,0.039,95.9
2020-04-26T00:34:03,42.805,6.029,0.008,0.01,-0.027,106.0,111.0,103.0,13.4,1505.3,323.5,-0.7,1.8,2470.376,13.33,0.012,38.7
2020-04-26T00:37:03,42.805,6.029,0.007,-0.007,-0.002,107.0,111.0,104.0,13.4,1505.3,322.8,-0.7,1.8,2470.337,13.33,0.009,135.0
2020-04-26T00:40:03,42.805,6.029,0.038,0.0,-0.019,106.0,112.0,104.0,13.4,1505.3,327.2,-0.7,1.8,2470.336,13.33,0.038,90.0
2020-04-26T00:43:03,42.805,6.029,0.04,-0.004,0.009,108.0,110.0,102.0,13.4,1505.3,326.1,-0.7,1.8,2470.333,13.33,0.04,95.7
2020-04-26T00:46:03,42.805,6.029,0.041,0.001,0.006,108.0,109.0,103.0,13.3,1505.3,324.3,-0.7,1.8,2470.286,13.33,0.041,88.6
2020-04-26T00:49:03,42.805,6.029,0.021,0.021,-0.068,107.0,110.0,102.0,13.3,1505.3,326.4,-0.7,1.8,2470.283,13.33,0.029,45.0
2020-04-26T00:52:03,42.805,6.029,0.025,-0.009,0.0,105.0,112.0,102.0,13.4,1505.3,328.1,-0.7,1.8,2470.328,13.33,0.026,109.8
2020-04-26T00:55:03,42.805,6.029,0.025,-0.011,0.023,105.0,109.0,103.0,13.4,1505.3,328.7,-0.7,1.8,2470.326,13.33,0.027,113.7
2020-04-26T00:58:03,42.805,6.029,0.044,-0.003,0.006,106.0,111.0,103.0,13.4,1505.3,327.7,-0.7,1.8,2470.281,13.33,0.044,93.9
2020-04-26T01:04:03,42.805,6.029,0.037,-0.001,0.011,107.0,112.0,104.0,13.4,1505.3,327.1,-0.7,1.8,2470.359,13.31,0.037,91.5
2020-04-26T01:07:03,42.805,6.029,0.028,-0.003,-0.007,105.0,109.0,102.0,13.3,1505.3,328.4,-0.7,1.8,2470.314,13.32,0.028,96.1
2020-04-26T01:10:03,42.805,6.029,0.031,0.005,0.017,105.0,110.0,104.0,13.4,1505.3,327.6,-0.7,1.8,2470.323,13.32,0.031,80.8
2020-04-26T01:13:03,42.805,6.029,0.002,0.017,-0.037,105.0,110.0,102.0,13.4,1505.3,328.5,-0.7,1.8,2470.348,13.33,0.017,6.7
2020-04-26T01:16:03,42.805,6.029,0.026,-0.002,-0.019,104.0,111.0,103.0,13.4,1505.3,327.9,-0.7,1.8,2470.356,13.33,0.026,94.4
2020-04-26T01:19:03,42.805,6.029,0.042,-0.005,0.002,107.0,110.0,101.0,13.4,1505.3,327.3,-0.7,1.8,2470.327,13.33,0.042,96.8
2020-04-26T01:22:03,42.805,6.029,0.049,0.003,-0.009,106.0,110.0,104.0,13.3,1505.3,326.9,-0.6,1.9,2470.338,13.33,0.049,86.5
2020-04-26T01:25:03,42.805,6.029,0.043,0.001,-0.003,106.0,111.0,102.0,13.3,1505.3,327.1,-0.7,1.9,2470.301,13.33,0.043,88.7
2020-04-26T01:28:03,42.805,6.029,0.048,0.006,0.04,107.0,109.0,103.0,13.3,1505.3,325.6,-0.7,1.8,2470.25,13.33,0.048,82.9
2020-04-26T01:31:03,42.805,6.029,0.052,-0.003,0.004,105.0,110.0,102.0,13.4,1505.3,325.7,-0.7,1.8,2470.305,13.33,0.052,93.3
2020-04-26T01:34:03,42.805,6.029,0.042,0.017,0.001,104.0,111.0,102.0,13.4,1505.3,327.0,-0.7,1.8,2470.327,13.33,0.045,68.0
2020-04-26T01:37:03,42.805,6.029,0.007,-0.003,-0.038,105.0,108.0,102.0,13.4,1505.3,323.0,-0.7,1.8,2470.27,13.33,0.007,113.2
2020-04-26T01:40:03,42.805,6.029,0.02,0.013,0.019,105.0,110.0,102.0,13.4,1505.3,324.5,-0.7,1.8,2470.323,13.33,0.023,57.0
2020-04-26T01:43:03,42.805,6.029,0.027,-0.006,-0.011,104.0,111.0,102.0,13.4,1505.3,323.1,-0.7,1.8,2470.307,13.33,0.027,102.5
2020-04-26T01:46:03,42.805,6.029,0.019,0.021,0.01,108.0,109.0,103.0,13.4,1505.3,326.4,-0.7,1.8,2470.299,13.33,0.028,42.1
2020-04-26T01:49:03,42.805,6.029,-0.007,-0.002,-0.046,104.0,108.0,103.0,13.4,1505.3,325.2,-0.7,1.8,2470.323,13.33,0.007,254.1
2020-04-26T01:52:03,42.805,6.029,0.003,0.026,-0.021,105.0,109.0,101.0,13.4,1505.3,327.1,-0.7,1.8,2470.284,13.33,0.026,6.6
2020-04-26T01:55:03,42.805,6.029,-0.029,0.004,-0.029,107.0,109.0,100.0,13.4,1505.3,327.0,-0.7,1.8,2470.277,13.33,0.029,277.8
2020-04-26T01:58:03,42.805,6.029,0.012,-0.006,-0.014,104.0,108.0,102.0,13.4,1505.3,327.3,-0.7,1.8,2470.285,13.33,0.013,116.6
2020-04-26T02:04:03,42.805,6.029,0.025,-0.007,-0.024,105.0,110.0,102.0,13.4,1505.3,325.2,-0.8,1.8,2470.308,13.31,0.025,105.6
2020-04-26T02:07:03,42.805,6.029,-0.008,0.013,-0.011,104.0,109.0,103.0,13.4,1505.3,328.1,-0.7,1.8,2470.325,13.32,0.015,328.4
2020-04-26T02:10:03,42.805,6.029,-0.018,-0.003,-0.017,105.0,109.0,101.0,13.4,1505.3,323.3,-0.7,1.8,2470.338,13.33,0.018,260.5
2020-04-26T02:13:03,42.805,6.029,0.0,-0.001,-0.047,104.0,109.0,103.0,13.4,1505.3,325.9,-0.7,1.8,2470.263,13.33,0.001,180.0
2020-04-26T02:16:03,42.805,6.029,-0.015,-0.006,-0.04,106.0,108.0,103.0,13.4,1505.3,324.3,-0.7,1.8,2470.32,13.33,0.016,248.2
2020-04-26T02:19:03,42.805,6.029,-0.001,-0.012,-0.019,105.0,110.0,102.0,13.3,1505.3,327.1,-0.7,1.8,2470.281,13.33,0.012,184.8
2020-04-26T02:22:03,42.805,6.029,0.004,-0.016,-0.035,104.0,110.0,102.0,13.4,1505.3,323.2,-0.7,1.8,2470.271,13.33,0.016,166.0
2020-04-26T02:25:03,42.805,6.029,0.019,-0.01,-0.045,107.0,109.0,102.0,13.4,1505.3,325.5,-0.7,1.9,2470.262,13.33,0.021,117.8
2020-04-26T02:28:03,42.805,6.029,0.0,-0.003,-0.03,104.0,109.0,102.0,13.3,1505.3,326.7,-0.7,1.8,2470.296,13.33,0.003,180.0
2020-04-26T02:31:03,42.805,6.029,-0.013,-0.003,-0.055,105.0,109.0,102.0,13.4,1505.3,326.4,-0.7,1.8,2470.223,13.33,0.013,257.0
2020-04-26T02:34:03,42.805,6.029,-0.004,-0.004,-0.036,105.0,111.0,103.0,13.4,1505.3,325.9,-0.7,1.8,2470.287,13.33,0.005,225.0
2020-04-26T02:37:03,42.805,6.029,-0.011,-0.007,-0.019,106.0,109.0,103.0,13.3,1505.3,323.0,-0.7,1.8,2470.245,13.33,0.013,237.5
2020-04-26T02:40:03,42.805,6.029,-0.008,-0.018,-0.031,106.0,109.0,103.0,13.3,1505.3,328.6,-0.7,1.8,2470.25,13.33,0.019,204.0
2020-04-26T02:43:03,42.805,6.029,-0.03,-0.004,-0.074,107.0,109.0,102.0,13.4,1505.3,325.3,-0.7,1.8,2470.251,13.33,0.03,262.4
2020-04-26T02:46:03,42.805,6.029,-0.009,-0.004,-0.018,106.0,108.0,103.0,13.4,1505.3,324.6,-0.7,1.8,2470.251,13.33,0.009,246.0
2020-04-26T02:49:03,42.805,6.029,-0.049,0.012,-0.093,106.0,108.0,102.0,13.3,1505.3,327.7,-0.7,1.8,2470.247,13.33,0.05,283.8
2020-04-26T02:52:03,42.805,6.029,0.024,-0.002,-0.013,106.0,111.0,101.0,13.3,1505.3,326.0,-0.7,1.9,2470.273,13.33,0.024,94.8
2020-04-26T02:55:03,42.805,6.029,0.021,0.004,0.017,106.0,110.0,103.0,13.4,1505.3,327.5,-0.7,1.8,2470.282,13.33,0.021,79.2
2020-04-26T02:58:03,42.805,6.029,0.016,0.017,-0.014,106.0,109.0,102.0,13.3,1505.3,325.7,-0.7,1.8,2470.23,13.33,0.023,43.3
2020-04-26T03:04:03,42.805,6.029,0.042,0.011,0.028,104.0,109.0,101.0,13.4,1505.3,327.6,-0.7,1.8,2470.259,13.31,0.043,75.3
2020-04-26T03:07:03,42.805,6.029,0.036,0.001,-0.013,104.0,107.0,100.0,13.4,1505.3,327.8,-0.7,1.8,2470.252,13.32,0.036,88.4
2020-04-26T03:10:03,42.805,6.029,0.058,0.007,0.018,105.0,109.0,100.0,13.4,1505.3,328.2,-0.7,1.8,2470.282,13.32,0.058,83.1
2020-04-26T03:13:03,42.805,6.029,0.026,0.012,0.022,104.0,109.0,103.0,13.4,1505.3,328.3,-0.7,1.8,2470.329,13.33,0.028,65.2
2020-04-26T03:16:03,42.805,6.029,0.027,0.03,0.031,104.0,110.0,101.0,13.4,1505.3,323.1,-0.7,1.8,2470.26,13.33,0.04,42.0
2020-04-26T03:19:03,42.805,6.029,0.013,0.01,-0.03,103.0,110.0,102.0,13.3,1505.3,324.6,-0.7,1.8,2470.266,13.33,0.016,52.4
2020-04-26T03:22:03,42.805,6.029,0.011,-0.005,-0.031,104.0,108.0,100.0,13.4,1505.3,326.1,-0.7,1.8,2470.256,13.33,0.012,114.4
2020-04-26T03:25:03,42.805,6.029,0.017,0.001,-0.037,101.0,109.0,102.0,13.4,1505.3,323.7,-0.7,1.8,2470.249,13.33,0.017,86.6
2020-04-26T03:28:03,42.805,6.029,0.006,0.002,-0.029,104.0,108.0,101.0,13.3,1505.3,325.1,-0.7,1.8,2470.228,13.33,0.006,71.6
2020-04-26T03:31:03,42.805,6.029,0.017,-0.003,-0.053,103.0,109.0,101.0,13.4,1505.3,327.2,-0.7,1.8,2470.255,13.33,0.017,100.0
2020-04-26T03:34:03,42.805,6.029,0.037,0.002,-0.032,102.0,107.0,101.0,13.4,1505.3,326.9,-0.7,1.8,2470.247,13.33,0.037,86.9
2020-04-26T03:37:03,42.805,6.029,0.029,-0.007,-0.015,103.0,107.0,100.0,13.3,1505.3,323.5,-0.7,1.8,2470.278,13.33,0.029,103.6
2020-04-26T03:40:03,42.805,6.029,0.014,0.013,-0.03,101.0,106.0,101.0,13.3,1505.3,326.5,-0.7,1.8,2470.223,13.33,0.019,47.1
2020-04-26T03:43:03,42.805,6.029,-0.006,-0.001,-0.066,103.0,108.0,100.0,13.3,1505.3,328.0,-0.7,1.8,2470.229,13.33,0.006,260.5
2020-04-26T03:46:03,42.805,6.029,0.005,0.002,-0.059,102.0,107.0,101.0,13.4,1505.3,326.2,-0.7,1.8,2470.238,13.33,0.005,68.2
2020-04-26T03:49:03,42.805,6.029,0.039,0.015,0.007,105.0,107.0,101.0,13.4,1505.3,327.6,-0.7,1.8,2470.247,13.33,0.041,69.0
2020-04-26T03:52:03,42.805,6.029,-0.02,-0.001,-0.046,103.0,109.0,102.0,13.4,1505.3,323.2,-0.7,1.8,2470.248,13.33,0.02,267.1
2020-04-26T03:55:03,42.805,6.029,0.007,0.0,-0.021,103.0,108.0,101.0,13.4,1505.3,324.2,-0.7,1.8,2470.22,13.33,0.007,90.0
2020-04-26T03:58:03,42.805,6.029,0.0,0.003,-0.019,102.0,108.0,101.0,13.4,1505.3,327.2,-0.7,1.8,2470.247,13.33,0.003,0.0
2020-04-26T04:04:03,42.805,6.029,-0.005,-0.023,-0.052,103.0,110.0,101.0,13.3,1505.3,324.9,-0.7,1.8,2470.295,13.31,0.023,192.3
2020-04-26T04:07:03,42.805,6.029,0.015,0.01,-0.039,103.0,109.0,101.0,13.4,1505.3,324.4,-0.7,1.8,2470.282,13.32,0.018,56.3
2020-04-26T04:10:03,42.805,6.029,0.015,0.006,-0.011,102.0,110.0,101.0,13.4,1505.3,324.8,-0.7,1.8,2470.249,13.32,0.016,68.2
2020-04-26T04:13:03,42.805,6.029,0.044,-0.003,0.01,104.0,109.0,101.0,13.3,1505.3,325.0,-0.7,1.8,2470.253,13.32,0.044,93.9
2020-04-26T04:16:03,42.805,6.029,-0.009,0.018,-0.055,102.0,110.0,101.0,13.4,1505.3,325.3,-0.7,1.8,2470.235,13.33,0.02,333.4
2020-04-26T04:19:03,42.805,6.029,0.003,0.002,-0.02,104.0,109.0,102.0,13.4,1505.3,324.5,-0.7,1.8,2470.247,13.33,0.003,56.3
2020-04-26T04:22:03,42.805,6.029,0.002,-0.005,-0.014,105.0,111.0,102.0,13.3,1505.3,327.8,-0.7,1.9,2470.288,13.33,0.005,158.2
2020-04-26T04:25:03,42.805,6.029,0.008,-0.004,-0.041,106.0,110.0,101.0,13.3,1505.3,325.5,-0.7,1.8,2470.259,13.33,0.008,116.6
2020-04-26T04:28:03,42.805,6.029,0.026,-0.003,-0.014,104.0,110.0,101.0,13.4,1505.3,328.2,-0.7,1.8,2470.288,13.33,0.026,96.6
2020-04-26T04:31:03,42.805,6.029,0.044,-0.002,-0.023,104.0,111.0,103.0,13.4,1505.3,325.9,-0.7,1.8,2470.259,13.33,0.044,92.6
2020-04-26T04:34:03,42.805,6.029,-0.014,0.012,-0.05,107.0,112.0,103.0,13.4,1505.3,328.1,-0.7,1.9,2470.251,13.33,0.018,310.6
2020-04-26T04:37:03,42.805,6.029,0.013,-0.004,-0.023,105.0,110.0,99.0,13.3,1505.3,327.2,-0.7,1.8,2470.249,13.33,0.013,107.1
2020-04-26T04:40:03,42.805,6.029,-0.005,0.002,-0.055,103.0,110.0,101.0,13.4,1505.3,323.0,-0.7,1.8,2470.231,13.33,0.005,291.8
2020-04-26T04:43:03,42.805,6.029,0.024,0.001,-0.016,103.0,107.0,100.0,13.3,1505.3,323.6,-0.7,1.8,2470.241,13.33,0.024,87.6
2020-04-26T04:46:03,42.805,6.029,-0.001,-0.008,-0.051,104.0,107.0,101.0,13.3,1505.3,324.4,-0.7,1.8,2470.168,13.33,0.008,187.1
2020-04-26T04:49:03,42.805,6.029,0.026,-0.012,-0.023,104.0,108.0,101.0,13.3,1505.3,325.2,-0.7,1.8,2470.261,13.33,0.028,114.8
2020-04-26T04:52:03,42.805,6.029,0.019,-0.005,-0.035,103.0,107.0,101.0,13.3,1505.3,326.0,-0.7,1.8,2470.198,13.33,0.019,104.7
2020-04-26T04:55:03,42.805,6.029,0.014,-0.002,-0.03,103.0,110.0,101.0,13.4,1505.3,324.1,-0.7,1.8,2470.255,13.33,0.014,98.1
2020-04-26T04:58:03,42.805,6.029,0.038,0.028,0.037,103.0,107.0,103.0,13.4,1505.3,325.9,-0.7,1.8,2470.276,13.33,0.047,53.6
2020-04-26T05:04:03,42.805,6.029,0.026,0.006,-0.015,103.0,109.0,101.0,13.4,1505.3,326.9,-0.7,1.9,2470.313,13.31,0.026,77.0
2020-04-26T05:07:03,42.805,6.029,0.023,0.007,-0.046,105.0,110.0,102.0,13.4,1505.3,323.7,-0.7,1.8,2470.272,13.31,0.024,73.1
2020-04-26T05:10:03,42.805,6.029,-0.003,-0.01,-0.062,103.0,109.0,102.0,13.4,1505.3,324.3,-0.7,1.8,2470.275,13.32,0.01,196.7
2020-04-26T05:13:03,42.805,6.029,0.015,0.001,-0.037,107.0,109.0,103.0,13.3,1505.3,323.1,-0.7,1.8,2470.262,13.32,0.015,86.2
2020-04-26T05:16:03,42.805,6.029,0.023,0.003,-0.038,106.0,110.0,102.0,13.4,1505.3,327.8,-0.7,1.8,2470.293,13.33,0.023,82.6
2020-04-26T05:19:03,42.805,6.029,-0.017,-0.007,-0.05,104.0,110.0,101.0,13.3,1505.3,327.2,-0.7,1.8,2470.315,13.33,0.018,247.6
2020-04-26T05:22:03,42.805,6.029,0.0,-0.006,-0.031,105.0,111.0,103.0,13.3,1505.3,326.4,-0.7,1.9,2470.33,13.33,0.006,180.0
2020-04-26T05:25:03,42.805,6.029,-0.002,0.006,-0.015,106.0,111.0,102.0,13.4,1505.3,328.4,-0.7,1.8,2470.291,13.33,0.006,341.6
2020-04-26T05:28:03,42.805,6.029,0.007,0.013,-0.015,107.0,110.0,103.0,13.3,1505.3,324.9,-0.7,1.8,2470.298,13.33,0.014,28.3
2020-04-26T05:31:03,42.805,6.029,0.011,-0.008,-0.015,106.0,109.0,102.0,13.4,1505.3,328.0,-0.7,1.8,2470.239,13.33,0.013,126.0
2020-04-26T05:34:03,42.805,6.029,0.01,0.0,-0.002,106.0,107.0,102.0,13.4,1505.3,324.8,-0.7,1.9,2470.27,13.33,0.01,90.0
2020-04-26T05:37:03,42.805,6.029,0.023,-0.025,-0.043,106.0,111.0,103.0,13.3,1505.3,328.1,-0.7,1.8,2470.292,13.33,0.033,137.4
2020-04-26T05:40:03,42.805,6.029,0.028,0.002,-0.037,105.0,109.0,103.0,13.3,1505.3,326.4,-0.7,1.9,2470.276,13.33,0.028,85.9
2020-04-26T05:43:03,42.805,6.029,0.011,-0.01,-0.012,105.0,109.0,102.0,13.4,1505.3,327.8,-0.7,1.8,2470.292,13.33,0.014,132.3
2020-04-26T05:46:03,42.805,6.029,0.037,-0.006,-0.019,105.0,110.0,103.0,13.4,1505.3,324.3,-0.7,1.8,2470.284,13.33,0.037,99.2
2020-04-26T05:49:03,42.805,6.029,0.028,0.009,-0.001,106.0,110.0,102.0,13.3,1505.3,326.0,-0.7,1.8,2470.326,13.33,0.029,72.2
2020-04-26T05:52:03,42.805,6.029,0.022,-0.005,-0.042,107.0,112.0,102.0,13.4,1505.3,327.6,-0.7,1.8,2470.311,13.33,0.022,102.8
2020-04-26T05:55:03,42.805,6.029,0.009,0.016,-0.027,105.0,111.0,102.0,13.4,1505.3,327.4,-0.7,1.8,2470.308,13.33,0.018,29.4
2020-04-26T05:58:03,42.805,6.029,0.031,0.011,-0.015,106.0,110.0,102.0,13.4,1505.3,323.7,-0.7,1.9,2470.323,13.33,0.032,70.5
2020-04-26T06:04:03,42.805,6.029,0.036,0.004,0.0,107.0,110.0,103.0,13.3,1505.3,324.3,-0.7,1.8,2470.351,13.31,0.036,83.7
2020-04-26T06:07:03,42.805,6.029,0.018,0.0,-0.002,106.0,110.0,102.0,13.4,1505.3,325.9,-0.7,1.8,2470.324,13.31,0.018,90.0
2020-04-26T06:10:03,42.805,6.029,0.025,0.002,0.001,105.0,109.0,103.0,13.4,1505.3,328.5,-0.7,1.8,2470.341,13.32,0.025,85.4
2020-04-26T06:13:03,42.805,6.029,0.052,-0.007,0.0,106.0,110.0,103.0,13.4,1505.3,327.0,-0.7,1.8,2470.299,13.32,0.052,97.7
2020-04-26T06:16:03,42.805,6.029,0.04,-0.016,-0.016,105.0,108.0,102.0,13.4,1505.3,328.4,-0.7,1.8,2470.299,13.32,0.043,111.8
2020-04-26T06:19:03,42.805,6.029,0.015,0.004,-0.051,104.0,110.0,103.0,13.4,1505.3,325.1,-0.7,1.8,2470.344,13.32,0.015,75.1
2020-04-26T06:22:03,42.805,6.029,0.008,0.0,-0.032,105.0,110.0,103.0,13.4,1505.3,323.6,-0.7,1.8,2470.355,13.32,0.008,90.0
2020-04-26T06:25:03,42.805,6.029,0.021,-0.022,-0.05,104.0,109.0,102.0,13.4,1505.3,325.0,-0.7,1.8,2470.363,13.33,0.03,136.3
2020-04-26T06:28:03,42.805,6.029,0.009,-0.001,-0.02,104.0,107.0,102.0,13.4,1505.3,325.7,-0.7,1.8,2470.343,13.33,0.009,96.3
2020-04-26T06:31:03,42.805,6.029,0.031,-0.008,-0.013,105.0,106.0,103.0,13.4,1505.3,326.7,-0.7,1.8,2470.308,13.33,0.032,104.5
2020-04-26T06:34:03,42.805,6.029,0.034,-0.006,-0.027,104.0,107.0,102.0,13.4,1505.3,328.2,-0.7,1.8,2470.391,13.33,0.034,100.0
2020-04-26T06:37:03,42.805,6.029,0.024,-0.004,0.003,104.0,107.0,103.0,13.4,1505.3,324.5,-0.7,1.8,2470.347,13.33,0.024,99.5
2020-04-26T06:40:03,42.805,6.029,0.019,0.012,-0.038,105.0,106.0,101.0,13.4,1505.3,323.7,-0.7,1.9,2470.344,13.33,0.022,57.7
2020-04-26T06:43:03,42.805,6.029,0.005,0.0,-0.022,105.0,107.0,102.0,13.4,1505.3,324.3,-0.7,1.8,2470.383,13.33,0.005,90.0
2020-04-26T06:46:03,42.805,6.029,0.019,0.014,-0.024,104.0,106.0,102.0,13.3,1505.3,324.8,-0.7,1.9,2470.323,13.33,0.023,53.6
2020-04-26T06:49:03,42.805,6.029,0.047,0.011,-0.008,104.0,109.0,102.0,13.3,1505.3,326.7,-0.7,1.8,2470.33,13.33,0.048,76.8
2020-04-26T06:52:03,42.805,6.029,0.014,-0.006,-0.041,104.0,110.0,103.0,13.4,1505.3,327.3,-0.7,1.9,2470.326,13.33,0.015,113.2
2020-04-26T06:55:03,42.805,6.029,0.025,0.0,-0.031,105.0,109.0,102.0,13.4,1505.3,326.2,-0.7,1.8,2470.395,13.33,0.025,90.0
2020-04-26T06:58:03,42.805,6.029,0.035,0.003,-0.027,105.0,108.0,102.0,13.4,1505.3,326.0,-0.7,1.8,2470.329,13.32,0.035,85.1
2020-04-26T07:04:03,42.805,6.029,0.023,-0.001,-0.044,103.0,111.0,103.0,13.4,1505.3,326.5,-0.7,1.8,2470.37,13.31,0.023,92.5
2020-04-26T07:07:03,42.805,6.029,0.026,0.005,-0.023,105.0,110.0,102.0,13.4,1505.3,327.2,-0.7,1.8,2470.329,13.31,0.026,79.1
2020-04-26T07:10:03,42.805,6.029,0.004,0.0,-0.044,106.0,110.0,103.0,13.4,1505.3,324.0,-0.7,1.8,2470.372,13.32,0.004,90.0
2020-04-26T07:13:03,42.805,6.029,0.046,0.0,-0.042,105.0,111.0,103.0,13.3,1505.3,323.4,-0.7,1.9,2470.377,13.32,0.046,90.0
2020-04-26T07:16:03,42.805,6.029,0.02,0.013,0.006,105.0,110.0,103.0,13.4,1505.3,324.1,-0.7,1.8,2470.402,13.32,0.023,57.0
2020-04-26T07:19:03,42.805,6.029,0.026,-0.003,-0.004,107.0,110.0,102.0,13.4,1505.3,325.0,-0.7,1.8,2470.365,13.32,0.026,96.6
2020-04-26T07:22:03,42.805,6.029,0.045,0.002,-0.017,105.0,110.0,103.0,13.4,1505.3,323.3,-0.7,1.8,2470.403,13.32,0.045,87.5
2020-04-26T07:25:03,42.805,6.029,0.013,-0.003,-0.043,105.0,109.0,104.0,13.4,1505.3,325.8,-0.7,1.9,2470.378,13.32,0.013,103.0
2020-04-26T07:28:03,42.805,6.029,0.03,-0.01,-0.033,103.0,110.0,104.0,13.4,1505.3,327.4,-0.7,1.8,2470.403,13.32,0.031,108.4
2020-04-26T07:31:03,42.805,6.029,0.021,-0.005,-0.015,106.0,109.0,102.0,13.4,1505.3,327.3,-0.7,1.8,2470.325,13.32,0.021,103.4
2020-04-26T07:34:03,42.805,6.029,0.012,0.005,-0.001,106.0,109.0,102.0,13.4,1505.3,325.4,-0.7,1.8,2470.333,13.33,0.013,67.4
2020-04-26T07:37:03,42.805,6.029,0.027,0.016,-0.006,105.0,108.0,103.0,13.4,1505.3,324.6,-0.7,1.8,2470.368,13.33,0.031,59.3
2020-04-26T07:40:03,42.805,6.029,0.017,-0.004,-0.021,106.0,109.0,103.0,13.4,1505.3,327.6,-0.7,1.8,2470.343,13.33,0.017,103.2
2020-04-26T07:43:03,42.805,6.029,0.018,-0.014,-0.023,105.0,110.0,102.0,13.4,1505.3,325.5,-0.7,1.8,2470.426,13.33,0.022,127.9
2020-04-26T07:46:03,42.805,6.029,-0.002,-0.001,-0.001,105.0,109.0,103.0,13.3,1505.3,322.9,-0.7,1.8,2470.401,13.33,0.002,243.4
2020-04-26T07:49:03,42.805,6.029,0.018,0.002,-0.008,105.0,109.0,103.0,13.3,1505.3,327.9,-0.7,1.9,2470.38,13.33,0.018,83.7
2020-04-26T07:52:03,42.805,6.029,0.048,-0.007,0.003,106.0,109.0,103.0,13.4,1505.3,327.3,-0.7,1.8,2470.384,13.33,0.048,98.3
2020-04-26T07:55:03,42.805,6.029,0.02,-0.026,-0.029,106.0,109.0,104.0,13.4,1505.3,326.5,-0.7,1.8,2470.389,13.33,0.032,142.4
2020-04-26T07:58:03,42.805,6.029,0.007,0.003,-0.048,106.0,109.0,102.0,13.4,1505.3,326.1,-0.7,1.8,2470.382,13.33,0.007,66.8
2020-04-26T08:04:03,42.805,6.029,0.021,0.006,-0.019,103.0,109.0,102.0,13.4,1505.3,327.8,-0.7,1.8,2470.457,13.31,0.021,74.1
2020-04-26T08:07:03,42.805,6.029,0.031,0.0,-0.001,104.0,111.0,102.0,13.4,1505.3,326.5,-0.8,1.9,2470.374,13.31,0.03,90.0
2020-04-26T08:10:03,42.805,6.029,0.017,0.006,-0.026,104.0,108.0,101.0,13.4,1505.3,326.0,-0.7,1.8,2470.426,13.32,0.018,70.6
2020-04-26T08:13:03,42.805,6.029,0.024,-0.01,-0.029,104.0,109.0,102.0,13.4,1505.3,322.9,-0.7,1.9,2470.428,13.32,0.026,112.6
2020-04-26T08:16:03,42.805,6.029,0.059,-0.002,0.02,106.0,108.0,102.0,13.4,1505.3,324.2,-0.7,1.8,2470.447,13.32,0.059,91.9
2020-04-26T08:19:03,42.805,6.029,0.031,0.0,-0.017,105.0,108.0,101.0,13.4,1505.3,324.7,-0.7,1.8,2470.401,13.32,0.03,90.0
2020-04-26T08:22:03,42.805,6.029,0.0,-0.009,-0.034,105.0,109.0,102.0,13.4,1505.3,326.1,-0.7,1.8,2470.43,13.32,0.009,180.0
2020-04-26T08:25:03,42.805,6.029,0.012,-0.011,-0.022,105.0,110.0,103.0,13.4,1505.3,327.7,-0.7,1.8,2470.424,13.32,0.016,132.5
2020-04-26T08:28:03,42.805,6.029,0.019,-0.004,-0.035,105.0,108.0,102.0,13.4,1505.3,323.5,-0.7,1.8,2470.372,13.32,0.019,101.9
2020-04-26T08:31:03,42.805,6.029,0.036,-0.002,-0.022,104.0,108.0,101.0,13.4,1505.3,327.0,-0.7,1.8,2470.389,13.33,0.036,93.2
2020-04-26T08:34:03,42.805,6.029,0.027,-0.006,-0.025,105.0,109.0,103.0,13.3,1505.3,326.8,-0.7,1.8,2470.452,13.33,0.027,102.5
2020-04-26T08:37:03,42.805,6.029,0.024,0.008,-0.007,105.0,108.0,102.0,13.4,1505.3,327.1,-0.7,1.8,2470.384,13.33,0.025,71.6
2020-04-26T08:40:03,42.805,6.029,0.008,-0.013,-0.012,105.0,109.0,102.0,13.3,1505.3,323.5,-0.7,1.8,2470.41,13.33,0.015,148.4
2020-04-26T08:43:03,42.805,6.029,0.012,-0.007,-0.015,106.0,107.0,102.0,13.4,1505.3,323.8,-0.8,1.8,2470.355,13.33,0.013,120.3
2020-04-26T08:46:03,42.805,6.029,0.021,-0.012,-0.038,104.0,109.0,102.0,13.4,1505.3,324.9,-0.7,1.9,2470.38,13.33,0.024,119.7
2020-04-26T08:49:03,42.805,6.029,-0.002,-0.032,-0.056,105.0,109.0,102.0,13.4,1505.3,327.9,-0.7,1.8,2470.372,13.33,0.032,183.6
2020-04-26T08:52:03,42.805,6.029,0.019,-0.011,-0.026,105.0,108.0,101.0,13.3,1505.3,327.0,-0.7,1.8,2470.432,13.33,0.021,120.1
2020-04-26T08:55:03,42.805,6.029,0.023,-0.031,-0.035,105.0,108.0,102.0,13.4,1505.3,325.0,-0.7,1.8,2470.393,13.33,0.038,143.4
2020-04-26T08:58:03,42.805,6.029,0.004,0.004,-0.029,104.0,108.0,102.0,13.3,1505.3,325.1,-0.7,1.9,2470.404,13.33,0.005,45.0
2020-04-26T09:04:03,42.805,6.029,0.007,-0.007,-0.048,106.0,108.0,102.0,13.4,1505.3,326.5,-0.7,1.8,2470.4,13.31,0.009,135.0
2020-04-26T09:07:03,42.805,6.029,0.007,-0.01,-0.036,106.0,107.0,102.0,13.4,1505.3,325.3,-0.7,1.8,2470.429,13.31,0.012,145.0
2020-04-26T09:10:03,42.805,6.029,0.028,0.021,-0.005,105.0,109.0,103.0,13.3,1505.3,322.8,-0.7,1.9,2470.468,13.32,0.035,53.1
2020-04-26T09:13:03,42.805,6.029,0.009,-0.016,-0.056,106.0,108.0,102.0,13.4,1505.3,325.8,-0.7,1.8,2470.386,13.32,0.018,150.6
2020-04-26T09:16:03,42.805,6.029,0.002,-0.003,-0.027,107.0,108.0,103.0,13.3,1505.3,327.1,-0.7,1.8,2470.401,13.32,0.003,146.3
2020-04-26T09:19:03,42.805,6.029,0.022,-0.005,-0.04,106.0,109.0,103.0,13.3,1505.3,328.3,-0.7,1.8,2470.428,13.32,0.022,102.8
2020-04-26T09:22:03,42.805,6.029,0.021,-0.01,-0.022,107.0,109.0,103.0,13.4,1505.3,324.1,-0.7,1.8,2470.39,13.33,0.023,115.5
2020-04-26T09:25:03,42.805,6.029,0.009,0.007,-0.003,107.0,109.0,103.0,13.4,1505.3,325.7,-0.7,1.8,2470.437,13.33,0.011,52.1
2020-04-26T09:28:03,42.805,6.029,0.024,-0.019,-0.043,108.0,108.0,103.0,13.3,1505.3,324.4,-0.7,1.8,2470.399,13.33,0.03,128.4
2020-04-26T09:31:03,42.805,6.029,0.007,0.006,-0.029,104.0,108.0,103.0,13.4,1505.3,326.6,-0.7,1.9,2470.409,13.33,0.009,49.4
2020-04-26T09:34:03,42.805,6.029,0.02,-0.012,-0.014,107.0,107.0,102.0,13.4,1505.3,323.3,-0.7,1.8,2470.375,13.33,0.023,121.0
2020-04-26T09:37:03,42.805,6.029,0.033,-0.007,-0.014,105.0,110.0,103.0,13.4,1505.3,326.6,-0.7,1.8,2470.417,13.33,0.033,102.0
2020-04-26T09:40:03,42.805,6.029,0.017,-0.006,-0.028,109.0,108.0,103.0,13.4,1505.3,328.1,-0.7,1.8,2470.393,13.33,0.018,109.4
2020-04-26T09:43:03,42.805,6.029,0.047,-0.012,-0.009,108.0,111.0,102.0,13.4,1505.3,328.4,-0.7,1.9,2470.335,13.33,0.048,104.3
2020-04-26T09:46:03,42.805,6.029,0.002,0.005,-0.01,106.0,109.0,103.0,13.3,1505.3,324.7,-0.7,1.8,2470.354,13.33,0.005,21.8
2020-04-26T09:49:03,42.805,6.029,-0.015,-0.013,-0.037,106.0,109.0,103.0,13.3,1505.3,326.2,-0.7,1.8,2470.363,13.33,0.019,229.1
2020-04-26T09:52:03,42.805,6.029,0.012,-0.026,-0.028,105.0,111.0,103.0,13.3,1505.3,325.7,-0.7,1.8,2470.388,13.33,0.028,155.2
2020-04-26T09:58:03,42.805,6.029,0.017,-0.007,-0.04,108.0,110.0,103.0,13.3,1505.3,327.7,-0.7,1.8,2470.397,13.31,0.018,112.4
2020-04-26T10:04:03,42.805,6.029,0.034,0.001,-0.011,107.0,108.0,103.0,13.4,1505.2,325.9,-0.8,1.8,2470.426,13.3,0.034,88.3